K5SVV Weather Reports


Display with metric or nautical units.
time (UTC)temp
F
wind
direction
speed
MPH
gust
MPH
rain 1hr
in
rain 24hr
in
rain mn
in
humidity
%
barometer
mb
20260903212932 88 126 4.0 6.0 0.00 0.00 0.00 69 1010.9
20260903212428 87 175 4.0 4.0 0.00 0.00 0.00 70 1011.0
20260903211922 87 182 5.0 8.0 0.00 0.00 0.00 69 1011.2
20260903211418 87 175 5.0 7.0 0.00 0.00 0.00 70 1011.3
20260903210914 87 165 2.0 4.0 0.00 0.00 0.00 70 1011.2
20260903210413 87 194 8.0 10.0 0.00 0.00 0.00 70 1011.2
20260903205909 87 154 0.0 1.0 0.00 0.00 0.00 70 1011.1
20260903205409 88 160 3.0 6.0 0.00 0.00 0.00 69 1011.2
20260903204903 88 157 3.0 4.0 0.00 0.00 0.00 68 1011.2
20260903204359 87 157 3.0 3.0 0.00 0.00 0.00 69 1011.5
20260903203855 87 183 6.0 8.0 0.00 0.00 0.00 69 1011.4
20260903203350 88 169 7.0 9.0 0.00 0.00 0.00 69 1011.4
20260903202849 88 193 5.0 7.0 0.00 0.00 0.00 68 1011.5
20260903202346 88 167 2.0 3.0 0.00 0.00 0.00 69 1011.6
20260903201846 88 216 6.0 7.0 0.00 0.00 0.00 68 1011.7
20260903201341 88 196 4.0 6.0 0.00 0.00 0.00 70 1011.4
20260903200839 88 180 8.0 9.0 0.00 0.00 0.00 70 1011.8
20260903200335 88 165 4.0 7.0 0.00 0.00 0.00 70 1011.6
20260903195830 87 183 7.0 11.0 0.00 0.00 0.00 70 1011.6
20260903195326 87 158 6.0 8.0 0.00 0.00 0.00 70 1011.7
20260903194821 87 153 6.0 8.0 0.00 0.00 0.00 70 1011.6
20260903194317 87 197 5.0 6.0 0.00 0.00 0.00 71 1011.9
20260903193812 87 218 10.0 13.0 0.00 0.00 0.00 71 1011.8
20260903193308 86 201 9.0 10.0 0.00 0.00 0.00 71 1012.1
20260903192803 87 174 8.0 13.0 0.00 0.00 0.00 71 1011.8
20260903192259 87 214 5.0 8.0 0.00 0.00 0.00 71 1012.1
20260903191755 87 176 9.0 10.0 0.00 0.00 0.00 70 1011.9
20260903191250 87 157 9.0 9.0 0.00 0.00 0.00 71 1012.0
20260903190744 87 172 9.0 13.0 0.00 0.00 0.00 71 1012.4
20260903190239 86 151 7.0 10.0 0.00 0.00 0.00 73 1012.3
20260903185734 86 208 10.0 15.0 0.00 0.00 0.00 73 1012.4
20260903185233 86 201 10.0 13.0 0.00 0.00 0.00 73 1012.8
20260903184730 86 192 12.0 16.0 0.00 0.00 0.00 74 1012.7
20260903184226 86 165 5.0 8.0 0.00 0.00 0.00 74 1012.6
20260903183721 86 210 5.0 7.0 0.00 0.00 0.00 75 1012.8
20260903183215 85 190 8.0 11.0 0.00 0.00 0.00 75 1012.8
20260903182714 85 165 6.0 8.0 0.00 0.00 0.00 77 1013.0
20260903182210 84 190 9.0 14.0 0.00 0.00 0.00 76 1013.2
20260903181708 83 204 9.0 11.0 0.00 0.00 0.00 78 1013.2
20260903181203 84 190 11.0 13.0 0.00 0.00 0.00 78 1013.3
20260903180659 83 135 5.0 7.0 0.00 0.00 0.00 79 1013.3
20260903180158 83 142 9.0 13.0 0.00 0.00 0.00 79 1013.3
20260903175657 83 170 6.0 9.0 0.00 0.00 0.00 80 1013.2
20260903175151 83 136 10.0 13.0 0.00 0.00 0.00 79 1013.5
20260903174645 83 117 6.0 7.0 0.00 0.00 0.00 80 1013.6
20260903174141 82 182 5.0 7.0 0.00 0.00 0.00 80 1013.7
20260903173635 82 179 8.0 13.0 0.00 0.00 0.00 81 1013.5
20260903173132 82 232 8.0 11.0 0.00 0.00 0.00 81 1013.7
20260903172632 82 124 8.0 11.0 0.00 0.00 0.00 81 1013.6
20260903172127 82 186 9.0 13.0 0.00 0.00 0.00 82 1013.6
20260903171627 82 176 5.0 8.0 0.00 0.00 0.00 82 1013.8
20260903171123 82 195 13.0 14.0 0.00 0.00 0.00 82 1013.6
20260903170621 82 158 5.0 9.0 0.00 0.00 0.00 83 1013.9
20260903170117 82 159 7.0 10.0 0.00 0.00 0.00 83 1013.8
20260903165615 82 148 5.0 9.0 0.00 0.00 0.00 83 1013.7
20260903165110 82 181 5.0 6.0 0.00 0.00 0.00 84 1013.9
20260903164605 82 167 5.0 8.0 0.00 0.00 0.00 83 1013.8
20260903164101 83 117 5.0 9.0 0.00 0.00 0.00 82 1013.8
20260903163601 83 174 4.0 6.0 0.00 0.00 0.00 82 1013.9
20260903163057 83 197 4.0 6.0 0.00 0.00 0.00 82 1013.6
20260903162553 83 191 8.0 9.0 0.00 0.00 0.00 82 1013.7
20260903162049 83 184 2.0 2.0 0.00 0.00 0.00 82 1013.6
20260903161544 82 161 9.0 9.0 0.00 0.00 0.00 82 1013.6
20260903161040 82 200 11.0 15.0 0.00 0.00 0.00 82 1013.4
20260903160538 82 180 6.0 8.0 0.00 0.00 0.00 82 1013.5
20260903160033 82 186 7.0 10.0 0.00 0.00 0.00 83 1013.5
20260903155526 82 180 4.0 6.0 0.00 0.00 0.00 84 1013.7
20260903155022 82 170 4.0 6.0 0.00 0.00 0.00 84 1013.3
20260903154518 82 185 2.0 3.0 0.00 0.00 0.00 83 1013.5
20260903154014 82 165 3.0 6.0 0.00 0.00 0.00 83 1013.5
20260903153509 82 172 3.0 6.0 0.00 0.00 0.00 84 1013.5
20260903153005 82 176 2.0 3.0 0.00 0.00 0.00 84 1013.3
20260903152501 82 202 4.0 7.0 0.00 0.00 0.00 84 1013.4
20260903151957 82 198 6.0 7.0 0.00 0.00 0.00 85 1013.4
20260903151450 82 167 4.0 6.0 0.00 0.00 0.00 85 1013.4
20260903150946 82 106 2.0 3.0 0.00 0.00 0.00 85 1013.4
20260903150445 82 194 5.0 8.0 0.00 0.00 0.00 85 1013.5
20260903145940 82 178 4.0 4.0 0.00 0.00 0.00 84 1013.5
20260903145436 82 160 2.0 4.0 0.00 0.00 0.00 84 1013.2
20260903144931 82 160 6.0 8.0 0.00 0.00 0.00 84 1013.4
20260903144430 82 211 4.0 9.0 0.00 0.00 0.00 84 1013.4
20260903143926 82 160 7.0 9.0 0.00 0.00 0.00 84 1013.4
20260903143422 82 201 8.0 10.0 0.00 0.00 0.00 84 1013.2
20260903142917 82 196 3.0 4.0 0.00 0.00 0.00 85 1013.0
20260903142413 81 189 7.0 9.0 0.00 0.00 0.00 85 1013.2
20260903141908 81 189 5.0 6.0 0.00 0.00 0.00 85 1013.3
20260903141358 81 174 4.0 4.0 0.00 0.00 0.00 86 1013.3
20260903140854 80 194 5.0 9.0 0.00 0.00 0.00 86 1013.3
20260903140349 80 154 4.0 4.0 0.00 0.00 0.00 86 1013.5
20260903135844 80 177 4.0 6.0 0.00 0.00 0.00 87 1013.4
20260903135340 79 178 4.0 4.0 0.00 0.00 0.00 87 1013.3
20260903134838 79 166 2.0 2.0 0.00 0.00 0.00 88 1013.2
20260903134334 79 185 2.0 3.0 0.00 0.00 0.00 89 1013.6
20260903133831 78 166 3.0 4.0 0.00 0.00 0.00 89 1013.0
20260903133328 78 166 1.0 2.0 0.00 0.00 0.00 90 1013.0
20260903132822 77 164 2.0 3.0 0.00 0.00 0.00 91 1013.1
20260903132318 77 159 3.0 3.0 0.00 0.00 0.00 91 1013.1
20260903131813 77 181 2.0 3.0 0.00 0.00 0.00 91 1013.0
20260903131313 77 142 4.0 6.0 0.00 0.00 0.00 92 1012.8
20260903130807 76 186 1.0 1.0 0.00 0.00 0.00 92 1012.8
20260903130307 76 165 2.0 3.0 0.00 0.00 0.00 92 1013.0
20260903125805 75 187 1.0 1.0 0.00 0.00 0.00 92 1013.1
20260903125301 75 166 2.0 2.0 0.00 0.00 0.00 93 1013.0
20260903124800 75 178 0.0 0.0 0.00 0.00 0.00 93 1013.0
20260903124256 75 128 1.0 1.0 0.00 0.00 0.00 93 1012.9
20260903123754 75 181 1.0 2.0 0.00 0.00 0.00 93 1012.8
20260903123254 75 167 0.0 0.0 0.00 0.00 0.00 93 1012.8
20260903122752 75 182 0.0 0.0 0.00 0.00 0.00 93 1012.8
20260903122247 75 183 0.0 0.0 0.00 0.00 0.00 93 1012.8
20260903121745 75 183 0.0 0.0 0.00 0.00 0.00 93 1012.7
20260903121242 75 167 0.0 0.0 0.00 0.00 0.00 93 1012.8
20260903120737 75 183 0.0 0.0 0.00 0.00 0.00 93 1012.4
20260903120230 75 183 0.0 0.0 0.00 0.00 0.00 92 1012.6
20260903115729 75 182 1.0 1.0 0.00 0.00 0.00 92 1012.6
20260903115224 75 183 0.0 0.0 0.00 0.00 0.00 92 1012.6
20260903114719 74 149 0.0 0.0 0.00 0.00 0.00 92 1012.6
20260903114215 75 183 0.0 0.0 0.00 0.00 0.00 92 1012.4
20260903113709 75 183 0.0 0.0 0.00 0.00 0.00 92 1012.6
20260903113205 75 183 0.0 0.0 0.00 0.00 0.00 92 1012.6
20260903112701 75 183 0.0 0.0 0.00 0.00 0.00 92 1012.7
20260903112156 74 183 0.0 0.0 0.00 0.00 0.00 92 1012.5
20260903111655 75 183 0.0 0.0 0.00 0.00 0.00 91 1012.7
20260903111150 75 183 0.0 0.0 0.00 0.00 0.00 91 1012.5
20260903110647 75 183 0.0 0.0 0.00 0.00 0.00 91 1012.5
20260903110143 75 183 0.0 0.0 0.00 0.00 0.00 91 1012.2
20260903105636 75 183 0.0 1.0 0.00 0.00 0.00 91 1012.2
20260903105132 75 183 0.0 1.0 0.00 0.00 0.00 91 1012.5
20260903104631 75 179 2.0 2.0 0.00 0.00 0.00 91 1012.3
20260903104127 75 167 2.0 2.0 0.00 0.00 0.00 91 1012.5
20260903103622 75 183 1.0 1.0 0.00 0.00 0.00 90 1012.4
20260903103118 75 182 0.0 1.0 0.00 0.00 0.00 90 1012.1
20260903102614 75 183 0.0 0.0 0.00 0.00 0.00 90 1012.1
20260903102113 75 183 0.0 0.0 0.00 0.00 0.00 90 1012.1
20260903101607 75 179 0.0 0.0 0.00 0.00 0.00 90 1012.3
20260903101102 75 189 0.0 0.0 0.00 0.00 0.00 89 1012.5
20260903100557 75 185 1.0 2.0 0.00 0.00 0.00 89 1012.4
20260903100056 75 182 0.0 0.0 0.00 0.00 0.00 89 1012.4
20260903095554 75 179 1.0 3.0 0.00 0.00 0.00 89 1012.4
20260903095049 75 183 0.0 0.0 0.00 0.00 0.00 89 1012.6
20260903094549 75 183 0.0 0.0 0.00 0.00 0.00 89 1012.4
20260903094045 75 188 0.0 0.0 0.00 0.00 0.00 89 1012.4
20260903093545 75 189 0.0 0.0 0.00 0.00 0.00 89 1012.6
20260903093041 75 193 0.0 0.0 0.00 0.00 0.00 89 1012.5
20260903092540 75 200 0.0 0.0 0.00 0.00 0.00 89 1012.3
20260903092034 75 200 0.0 0.0 0.00 0.00 0.00 89 1012.3
20260903091532 75 200 0.0 0.0 0.00 0.00 0.00 89 1012.4
20260903091027 75 200 0.0 0.0 0.00 0.00 0.00 89 1012.3
20260903090523 75 200 0.0 0.0 0.00 0.00 0.00 89 1012.3
20260903090022 75 201 0.0 0.0 0.00 0.00 0.00 89 1012.1
20260903085520 75 201 0.0 0.0 0.00 0.00 0.00 89 1012.1
20260903085016 75 201 0.0 0.0 0.00 0.00 0.00 88 1012.4
20260903084514 75 201 0.0 0.0 0.00 0.00 0.00 88 1012.1
20260903084009 75 201 0.0 0.0 0.00 0.00 0.00 88 1012.3
20260903083505 75 201 0.0 0.0 0.00 0.00 0.00 88 1012.3
20260903083005 75 201 0.0 0.0 0.00 0.00 0.00 88 1012.2
20260903082459 75 201 0.0 0.0 0.00 0.00 0.00 88 1012.2
20260903081954 75 201 0.0 0.0 0.00 0.00 0.00 88 1012.4
20260903081449 75 201 0.0 0.0 0.00 0.00 0.00 88 1012.5
20260903080946 75 201 0.0 0.0 0.00 0.00 0.00 87 1012.2
20260903080441 76 200 0.0 0.0 0.00 0.00 0.00 87 1012.3
20260903075937 76 213 0.0 0.0 0.00 0.00 0.00 87 1012.3
20260903075433 76 213 0.0 0.0 0.00 0.00 0.00 87 1011.9
20260903074927 76 213 0.0 0.0 0.00 0.00 0.00 86 1012.1
20260903074426 76 213 0.0 0.0 0.00 0.00 0.00 86 1012.3
20260903073922 76 213 0.0 0.0 0.00 0.00 0.00 86 1012.1
20260903073417 76 215 0.0 0.0 0.00 0.00 0.00 86 1012.3
20260903072913 76 223 0.0 0.0 0.00 0.00 0.00 86 1012.1
20260903072409 76 214 0.0 0.0 0.00 0.00 0.00 86 1012.3
20260903071905 76 203 0.0 0.0 0.00 0.00 0.00 86 1012.2
20260903071401 76 210 0.0 0.0 0.00 0.00 0.00 87 1012.3
20260903070856 76 217 0.0 0.0 0.00 0.00 0.00 87 1012.4
20260903070351 76 213 0.0 0.0 0.00 0.00 0.00 87 1012.5
20260903065846 76 196 0.0 0.0 0.00 0.00 0.00 87 1012.4
20260903065345 76 193 0.0 0.0 0.00 0.00 0.00 87 1012.5
20260903064844 76 204 0.0 0.0 0.00 0.00 0.00 87 1012.4
20260903064340 76 201 0.0 0.0 0.00 0.00 0.00 86 1012.3
20260903063836 76 201 0.0 0.0 0.00 0.00 0.00 86 1012.5
20260903063330 76 201 0.0 0.0 0.00 0.00 0.00 86 1012.4
20260903062821 76 201 0.0 0.0 0.00 0.00 0.00 85 1012.4
20260903062321 77 201 0.0 0.0 0.00 0.00 0.00 85 1012.6
20260903061817 77 201 0.0 0.0 0.00 0.00 0.00 85 1012.5
20260903061316 77 210 2.0 3.0 0.00 0.00 0.00 84 1012.6
20260903060812 77 220 3.0 3.0 0.00 0.00 0.00 84 1012.6
20260903060311 77 196 0.0 0.0 0.00 0.00 0.00 84 1012.7
20260903055809 77 193 0.0 0.0 0.00 0.00 0.00 83 1012.6
20260903055308 77 181 0.0 0.0 0.00 0.00 0.00 83 1012.7
20260903054802 77 194 0.0 0.0 0.00 0.00 0.00 83 1013.0
20260903054257 78 179 0.0 0.0 0.00 0.00 0.00 82 1012.9
20260903053754 78 199 0.0 0.0 0.00 0.00 0.00 82 1012.9
20260903053254 78 195 0.0 0.0 0.00 0.00 0.00 81 1012.7
20260903052744 78 166 0.0 0.0 0.00 0.00 0.00 81 1012.9
20260903052240 78 192 2.0 3.0 0.00 0.00 0.00 80 1013.0
20260903051735 78 192 3.0 3.0 0.00 0.00 0.00 80 1012.9
20260903051230 78 174 1.0 2.0 0.00 0.00 0.00 79 1012.9
20260903050726 79 189 0.0 0.0 0.00 0.00 0.00 79 1013.0
20260903050225 79 188 1.0 1.0 0.00 0.00 0.00 78 1013.1
20260903045720 79 182 1.0 1.0 0.00 0.00 0.00 78 1012.9
20260903045216 79 183 0.0 0.0 0.00 0.00 0.00 78 1013.0
20260903044712 79 176 0.0 1.0 0.00 0.00 0.00 77 1012.9
20260903044207 79 173 1.0 1.0 0.00 0.00 0.00 77 1013.0
20260903043704 80 184 0.0 0.0 0.00 0.00 0.00 76 1012.9
20260903043203 80 170 0.0 0.0 0.00 0.00 0.00 76 1012.7
20260903042702 80 171 0.0 0.0 0.00 0.00 0.00 76 1012.7
20260903042157 80 177 2.0 3.0 0.00 0.00 0.00 75 1012.8
20260903041654 80 173 0.0 0.0 0.00 0.00 0.00 75 1012.8
20260903041149 80 101 1.0 3.0 0.00 0.00 0.00 75 1012.7
20260903040649 81 168 0.0 0.0 0.00 0.00 0.00 74 1012.8
20260903040144 81 174 0.0 0.0 0.00 0.00 0.00 74 1012.9
20260903035639 81 69 0.0 0.0 0.00 0.00 0.00 74 1012.8
20260903035130 81 30 0.0 1.0 0.00 0.00 0.00 73 1012.6
20260903034630 81 178 0.0 0.0 0.00 0.00 0.00 73 1012.6
20260903034120 82 167 0.0 0.0 0.00 0.00 0.00 73 1012.6
20260903033615 82 171 0.0 0.0 0.00 0.00 0.00 72 1012.7
20260903033110 82 169 0.0 1.0 0.00 0.00 0.00 72 1013.0
20260903032610 82 167 0.0 0.0 0.00 0.00 0.00 72 1012.9
20260903032105 82 187 0.0 0.0 0.00 0.00 0.00 72 1012.8
20260903031600 82 164 0.0 0.0 0.00 0.00 0.00 71 1012.8
20260903031056 83 166 0.0 0.0 0.00 0.00 0.00 71 1012.7
20260903030551 83 50 0.0 0.0 0.00 0.00 0.00 71 1012.8
20260903030047 83 173 1.0 1.0 0.00 0.00 0.00 71 1012.6
20260903025542 83 215 2.0 3.0 0.00 0.00 0.00 70 1012.6
20260903025038 84 174 0.0 0.0 0.00 0.00 0.00 70 1012.3
20260903024537 84 184 0.0 1.0 0.00 0.00 0.00 70 1012.4
20260903024032 84 161 1.0 2.0 0.00 0.00 0.00 69 1012.3
20260903023527 84 129 1.0 1.0 0.00 0.00 0.00 69 1012.1
20260903023023 85 97 3.0 6.0 0.00 0.00 0.00 69 1011.9
20260903022522 85 38 0.0 1.0 0.00 0.00 0.00 69 1012.0
20260903022020 85 174 0.0 0.0 0.00 0.00 0.00 69 1011.8
20260903021516 85 189 0.0 0.0 0.00 0.00 0.00 69 1011.9
20260903021011 85 178 0.0 0.0 0.00 0.00 0.00 68 1012.0
20260903020506 85 190 0.0 0.0 0.00 0.00 0.00 68 1011.8
20260903020006 86 163 0.0 0.0 0.00 0.00 0.00 68 1011.9
20260903015502 86 127 0.0 0.0 0.00 0.00 0.00 67 1012.1
20260903014956 86 152 0.0 0.0 0.00 0.00 0.00 67 1011.7
20260903014456 86 134 0.0 1.0 0.00 0.00 0.00 66 1011.9
20260903013951 87 180 0.0 0.0 0.00 0.00 0.00 65 1011.6
20260903013451 87 195 0.0 2.0 0.00 0.00 0.00 64 1011.8
20260903012950 87 181 2.0 3.0 0.00 0.00 0.00 64 1011.7
20260903012449 87 173 0.0 0.0 0.00 0.00 0.00 63 1011.6
20260903011948 88 183 0.0 1.0 0.00 0.00 0.00 63 1011.5
20260903011443 88 168 1.0 2.0 0.00 0.00 0.00 63 1011.5
20260903010938 88 179 1.0 2.0 0.00 0.00 0.00 62 1011.6
20260903010434 88 181 1.0 1.0 0.00 0.00 0.00 62 1011.4
20260903005931 89 177 2.0 3.0 0.00 0.00 0.00 61 1011.4
20260903005427 89 158 3.0 4.0 0.00 0.00 0.00 61 1011.6
20260903004924 89 147 3.0 7.0 0.00 0.00 0.00 61 1011.5
20260903004418 89 195 2.0 2.0 0.00 0.00 0.00 60 1011.5
20260903003913 90 72 2.0 2.0 0.00 0.00 0.00 59 1011.4
20260903003408 90 177 4.0 7.0 0.00 0.00 0.00 59 1011.3
20260903002908 90 113 2.0 3.0 0.00 0.00 0.00 58 1011.4
20260903002403 91 86 4.0 7.0 0.00 0.00 0.00 57 1011.6
20260903001903 91 178 0.0 0.0 0.00 0.00 0.00 57 1011.7
20260903001358 91 155 0.0 0.0 0.00 0.00 0.00 56 1011.3
20260903000857 91 119 3.0 6.0 0.00 0.00 0.00 55 1011.3
20260903000355 92 198 3.0 3.0 0.00 0.00 0.00 53 1011.2
20260902235850 93 83 2.0 4.0 0.00 0.00 0.00 52 1011.3
20260902235346 94 78 4.0 7.0 0.00 0.00 0.00 50 1011.1
20260902234840 95 84 1.0 2.0 0.00 0.00 0.00 48 1011.1
20260902234335 95 133 4.0 6.0 0.00 0.00 0.00 47 1011.0
20260902233834 95 181 1.0 2.0 0.00 0.00 0.00 47 1011.3
20260902233334 95 118 2.0 3.0 0.00 0.00 0.00 48 1011.1
20260902232832 95 145 3.0 4.0 0.00 0.00 0.00 48 1011.1
20260902232327 95 144 4.0 6.0 0.00 0.00 0.00 48 1011.0
20260902231826 95 100 2.0 2.0 0.00 0.00 0.00 49 1011.1
20260902231322 96 125 0.0 1.0 0.00 0.00 0.00 50 1010.8
20260902230817 96 149 2.0 3.0 0.00 0.00 0.00 50 1011.1
20260902230316 96 169 1.0 1.0 0.00 0.00 0.00 49 1011.0
20260902225811 98 74 2.0 3.0 0.00 0.00 0.00 48 1011.0
20260902225306 98 13 3.0 6.0 0.00 0.00 0.00 41 1011.0
20260902224804 98 51 3.0 4.0 0.00 0.00 0.00 41 1010.8
20260902224259 98 50 2.0 4.0 0.00 0.00 0.00 41 1010.9
20260902223756 98 144 0.0 0.0 0.00 0.00 0.00 41 1010.8
20260902223255 98 43 2.0 3.0 0.00 0.00 0.00 41 1011.0
20260902222748 98 38 1.0 1.0 0.00 0.00 0.00 40 1010.9
20260902222243 99 52 5.0 6.0 0.00 0.00 0.00 41 1010.8
20260902221737 99 145 0.0 0.0 0.00 0.00 0.00 42 1010.7
20260902221236 98 201 0.0 0.0 0.00 0.00 0.00 41 1011.1
20260902220731 99 11 5.0 6.0 0.00 0.00 0.00 41 1010.8
20260902220226 99 21 4.0 4.0 0.00 0.00 0.00 41 1011.0
20260902215722 99 104 3.0 4.0 0.00 0.00 0.00 40 1010.8
20260902215217 99 102 2.0 2.0 0.00 0.00 0.00 41 1010.8
20260902214713 98 62 2.0 4.0 0.00 0.00 0.00 41 1010.9
20260902214211 98 51 9.0 10.0 0.00 0.00 0.00 42 1011.2
20260902213707 98 143 1.0 1.0 0.00 0.00 0.00 42 1010.8